Hourly Weather Maracay

Today, 25 September, Friday

Time Temperature Precipitation Wind Pressure Humidity
00:00 +24°C° 0 mm 1 mps 712 mmHg 88%
01:00 +24°C° 0 mm 1 mps 712 mmHg 88%
02:00 +24°C° 0 mm 1 mps 712 mmHg 88%
03:00 +24°C° 0 mm 1 mps 711 mmHg 88%
04:00 +23°C° 0 mm 1 mps 711 mmHg 88%
05:00 +24°C° 0 mm 1 mps 712 mmHg 86%
06:00 +25°C° 0 mm 1 mps 713 mmHg 85%
07:00 +26°C° 0 mm 1 mps 713 mmHg 83%
08:00 +27°C° 0 mm 1 mps 714 mmHg 76%
09:00 +29°C° 0 mm 1 mps 714 mmHg 69%
10:00 +30°C° 0 mm 2 mps 714 mmHg 62%
11:00 +31°C° 0.1 mm 2 mps 713 mmHg 60%
12:00 +31°C° 0.1 mm 2 mps 713 mmHg 59%
13:00 +31°C° 0.1 mm 2 mps 712 mmHg 58%
14:00 +31°C° 0.2 mm 2 mps 711 mmHg 63%
15:00 +30°C° 0.2 mm 2 mps 711 mmHg 68%
16:00 +29°C° 0.2 mm 1 mps 710 mmHg 74%
17:00 +28°C° 0.2 mm 1 mps 711 mmHg 78%
18:00 +27°C° 0.2 mm 1 mps 711 mmHg 82%
19:00 +25°C° 0.2 mm 1 mps 711 mmHg 86%
20:00 +25°C° 0.1 mm 1 mps 712 mmHg 86%
21:00 +25°C° 0.1 mm 1 mps 712 mmHg 86%
22:00 +24°C° 0.1 mm 1 mps 712 mmHg 87%
23:00 +24°C° 0 mm 1 mps 712 mmHg 87%

Tomorrow, 26 September, Saturday

Time Temperature Precipitation Wind Pressure Humidity
00:00 +24°C° 0 mm 1 mps 711 mmHg 87%
01:00 +23°C° 0 mm 1 mps 711 mmHg 87%
02:00 +23°C° 0 mm 1 mps 711 mmHg 87%
03:00 +23°C° 0 mm 1 mps 711 mmHg 87%
04:00 +23°C° 0 mm 1 mps 711 mmHg 87%
05:00 +22°C° 0 mm 0 mps 711 mmHg 85%
06:00 +23°C° 0 mm 0 mps 711 mmHg 83%
07:00 +24°C° 0 mm 0 mps 712 mmHg 81%
08:00 +27°C° 0 mm 1 mps 712 mmHg 73%
09:00 +29°C° 0 mm 1 mps 713 mmHg 65%
10:00 +31°C° 0 mm 1 mps 713 mmHg 57%
11:00 +31°C° 0.2 mm 1 mps 712 mmHg 55%
12:00 +32°C° 0.2 mm 1 mps 711 mmHg 54%
13:00 +32°C° 0.2 mm 1 mps 711 mmHg 53%
14:00 +31°C° 0.4 mm 1 mps 710 mmHg 60%
15:00 +30°C° 0.4 mm 2 mps 710 mmHg 67%
16:00 +29°C° 0.4 mm 2 mps 709 mmHg 73%
17:00 +28°C° 0.1 mm 1 mps 709 mmHg 78%
18:00 +26°C° 0.1 mm 1 mps 710 mmHg 82%
19:00 +25°C° 0.1 mm 1 mps 710 mmHg 86%
20:00 +25°C° 0 mm 1 mps 710 mmHg 87%
21:00 +24°C° 0 mm 1 mps 710 mmHg 88%
22:00 +24°C° 0 mm 1 mps 710 mmHg 89%
23:00 +24°C° 0 mm 1 mps 710 mmHg 89%

Day after tomorrow, 27 September, Sunday

Time Temperature Precipitation Wind Pressure Humidity
00:00 +24°C° 0 mm 1 mps 710 mmHg 90%
01:00 +23°C° 0 mm 1 mps 709 mmHg 90%
02:00 +23°C° 0 mm 1 mps 709 mmHg 90%
03:00 +23°C° 0 mm 1 mps 709 mmHg 90%
04:00 +21°C° 0 mm 0 mps 709 mmHg 91%
05:00 +22°C° 0 mm 0 mps 709 mmHg 88%
06:00 +23°C° 0 mm 0 mps 710 mmHg 86%
07:00 +23°C° 0 mm 0 mps 710 mmHg 83%
08:00 +27°C° 0 mm 1 mps 710 mmHg 76%
09:00 +29°C° 0 mm 1 mps 711 mmHg 68%
10:00 +31°C° 0 mm 1 mps 711 mmHg 60%
11:00 +31°C° 0.2 mm 1 mps 710 mmHg 60%
12:00 +31°C° 0.2 mm 1 mps 710 mmHg 60%
13:00 +31°C° 0.2 mm 1 mps 709 mmHg 60%
14:00 +31°C° 0.3 mm 1 mps 709 mmHg 64%
15:00 +30°C° 0.3 mm 1 mps 708 mmHg 68%
16:00 +29°C° 0.3 mm 1 mps 708 mmHg 72%
17:00 +28°C° 0 mm 1 mps 708 mmHg 77%
18:00 +27°C° 0 mm 1 mps 708 mmHg 82%
19:00 +25°C° 0 mm 1 mps 709 mmHg 87%
20:00 +25°C° 0 mm 1 mps 709 mmHg 88%
21:00 +24°C° 0 mm 1 mps 709 mmHg 89%
22:00 +24°C° 0 mm 1 mps 709 mmHg 90%
23:00 +24°C° 0 mm 1 mps 709 mmHg 91%

28 September, Monday

Time Temperature Precipitation Wind Pressure Humidity
00:00 +24°C° 0 mm 1 mps 708 mmHg 91%
01:00 +23°C° 0 mm 1 mps 708 mmHg 91%
02:00 +23°C° 0 mm 1 mps 708 mmHg 91%
03:00 +23°C° 0 mm 1 mps 708 mmHg 91%
04:00 +23°C° 0 mm 1 mps 708 mmHg 91%
05:00 +24°C° 0 mm 1 mps 708 mmHg 87%
06:00 +25°C° 0 mm 1 mps 709 mmHg 84%
07:00 +26°C° 0 mm 1 mps 709 mmHg 80%
08:00 +27°C° 0 mm 1 mps 710 mmHg 72%
09:00 +29°C° 0 mm 1 mps 710 mmHg 64%
10:00 +31°C° 0 mm 1 mps 711 mmHg 56%
11:00 +32°C° 0.1 mm 1 mps 710 mmHg 56%
12:00 +32°C° 0.1 mm 1 mps 709 mmHg 55%
13:00 +32°C° 0.1 mm 1 mps 708 mmHg 55%
14:00 +31°C° 0.6 mm 1 mps 708 mmHg 62%
15:00 +30°C° 0.6 mm 1 mps 708 mmHg 69%
16:00 +29°C° 0.6 mm 1 mps 707 mmHg 76%
17:00 +28°C° 1.3 mm 1 mps 708 mmHg 79%
18:00 +27°C° 1.3 mm 1 mps 708 mmHg 83%
19:00 +26°C° 1.3 mm 1 mps 708 mmHg 87%
20:00 +25°C° 0.7 mm 1 mps 709 mmHg 88%
21:00 +25°C° 0.7 mm 1 mps 709 mmHg 89%
22:00 +25°C° 0.7 mm 1 mps 709 mmHg 89%
23:00 +24°C° 0.5 mm 1 mps 709 mmHg 89%

29 September, Tuesday

Time Temperature Precipitation Wind Pressure Humidity
00:00 +24°C° 0.5 mm 1 mps 709 mmHg 89%
01:00 +24°C° 0.5 mm 1 mps 708 mmHg 88%
02:00 +24°C° 0.1 mm 1 mps 708 mmHg 88%
03:00 +24°C° 0.1 mm 1 mps 708 mmHg 87%
04:00 +23°C° 0.1 mm 1 mps 708 mmHg 87%
05:00 +24°C° 0.2 mm 1 mps 709 mmHg 86%
06:00 +25°C° 0.2 mm 1 mps 710 mmHg 85%
07:00 +25°C° 0.2 mm 1 mps 711 mmHg 84%
08:00 +27°C° 0.5 mm 2 mps 711 mmHg 79%
09:00 +28°C° 0.5 mm 2 mps 711 mmHg 74%
10:00 +29°C° 0.5 mm 2 mps 711 mmHg 70%
11:00 +29°C° 1.2 mm 2 mps 711 mmHg 70%
12:00 +29°C° 1.2 mm 2 mps 710 mmHg 71%
13:00 +29°C° 1.2 mm 2 mps 709 mmHg 71%
14:00 +28°C° 1.3 mm 2 mps 709 mmHg 75%
15:00 +27°C° 1.3 mm 1 mps 709 mmHg 79%
16:00 +26°C° 1.3 mm 1 mps 708 mmHg 83%
17:00 +26°C° 0 mm 1 mps 709 mmHg 84%
18:00 +25°C° 0 mm 1 mps 709 mmHg 85%
19:00 +24°C° 0 mm 1 mps 710 mmHg 86%
20:00 +24°C° 0 mm 1 mps 710 mmHg 87%
21:00 +24°C° 0 mm 1 mps 710 mmHg 87%
22:00 +23°C° 0 mm 1 mps 710 mmHg 88%
23:00 +23°C° 0 mm 1 mps 710 mmHg 88%

30 September, Wednesday

Time Temperature Precipitation Wind Pressure Humidity
00:00 +23°C° 0 mm 1 mps 710 mmHg 88%
01:00 +23°C° 0 mm 1 mps 709 mmHg 88%
02:00 +22°C° 0 mm 1 mps 709 mmHg 88%
03:00 +22°C° 0 mm 1 mps 709 mmHg 87%
04:00 +22°C° 0 mm 1 mps 709 mmHg 87%
05:00 +23°C° 0 mm 1 mps 710 mmHg 85%
06:00 +24°C° 0 mm 1 mps 710 mmHg 82%
07:00 +25°C° 0 mm 1 mps 711 mmHg 80%
08:00 +27°C° 0 mm 1 mps 711 mmHg 73%
09:00 +29°C° 0 mm 1 mps 712 mmHg 66%
10:00 +30°C° 0 mm 2 mps 712 mmHg 59%
11:00 +31°C° 0 mm 2 mps 711 mmHg 58%
12:00 +31°C° 0 mm 2 mps 711 mmHg 56%
13:00 +31°C° 0 mm 2 mps 710 mmHg 55%
14:00 +31°C° 0.3 mm 2 mps 709 mmHg 61%
15:00 +30°C° 0.3 mm 2 mps 709 mmHg 67%
16:00 +29°C° 0.3 mm 1 mps 708 mmHg 73%
17:00 +28°C° 0.2 mm 1 mps 709 mmHg 77%
18:00 +26°C° 0.2 mm 1 mps 709 mmHg 81%
19:00 +25°C° 0.2 mm 1 mps 709 mmHg 85%
20:00 +25°C° 0.2 mm 1 mps 710 mmHg 86%
21:00 +24°C° 0.2 mm 1 mps 710 mmHg 86%
22:00 +24°C° 0.2 mm 1 mps 711 mmHg 87%
23:00 +24°C° 0.8 mm 1 mps 710 mmHg 88%
Show more